TimePDT,TemperatureF,Dew PointF,Humidity,Sea Level PressureIn,VisibilityMPH,Wind Direction,Wind SpeedMPH,Gust SpeedMPH,PrecipitationIn,Events,Conditions,WindDirDegrees,DateUTC
12:52 AM,64.9,45.0,48,29.81,-9999.0,NE,3.5,-,N/A,,Unknown,50,2013-07-15 07:52:00
1:52 AM,64.9,44.1,47,29.81,-9999.0,NE,3.5,-,N/A,,Unknown,50,2013-07-15 08:52:00
2:52 AM,62.1,44.1,52,29.80,-9999.0,NE,6.9,-,N/A,,Unknown,50,2013-07-15 09:52:00
3:52 AM,62.1,44.1,52,29.79,-9999.0,NE,4.6,-,N/A,,Unknown,40,2013-07-15 10:52:00
4:52 AM,61.0,44.1,54,29.79,-9999.0,NE,5.8,-,N/A,,Unknown,50,2013-07-15 11:52:00
5:52 AM,60.1,44.1,55,29.80,-9999.0,NE,4.6,-,N/A,,Unknown,50,2013-07-15 12:52:00
6:52 AM,64.9,45.0,48,29.81,-9999.0,NE,4.6,-,N/A,,Unknown,50,2013-07-15 13:52:00
7:52 AM,73.9,45.0,35,29.81,-9999.0,Calm,Calm,-,N/A,,Unknown,0,2013-07-15 14:52:00
8:52 AM,82.0,37.0,20,29.81,-9999.0,SSW,9.2,-,N/A,,Unknown,210,2013-07-15 15:52:00
9:52 AM,86.0,42.1,21,29.79,-9999.0,SSW,9.2,-,N/A,,Unknown,210,2013-07-15 16:52:00
10:52 AM,89.1,42.1,19,29.79,-9999.0,SW,16.1,-,N/A,,Unknown,220,2013-07-15 17:52:00
11:52 AM,90.0,43.0,19,29.78,-9999.0,SSW,17.3,-,N/A,,Unknown,210,2013-07-15 18:52:00
12:52 PM,93.9,42.1,17,29.77,-9999.0,WNW,13.8,20.7,N/A,,Unknown,300,2013-07-15 19:52:00
1:52 PM,93.9,39.0,15,29.75,-9999.0,NW,18.4,25.3,N/A,,Unknown,310,2013-07-15 20:52:00
2:52 PM,93.9,39.0,15,29.75,-9999.0,WNW,18.4,27.6,N/A,,Unknown,300,2013-07-15 21:52:00
3:52 PM,91.0,37.0,15,29.74,-9999.0,West,19.6,29.9,N/A,,Unknown,280,2013-07-15 22:52:00
4:52 PM,89.1,42.1,19,29.75,-9999.0,WNW,18.4,27.6,N/A,,Unknown,290,2013-07-15 23:52:00
5:52 PM,86.0,43.0,22,29.75,-9999.0,West,16.1,24.2,N/A,,Unknown,280,2013-07-16 00:52:00
6:52 PM,82.9,45.0,26,29.76,-9999.0,West,12.7,23.0,N/A,,Unknown,280,2013-07-16 01:52:00
7:52 PM,79.0,46.0,31,29.77,-9999.0,West,8.1,-,N/A,,Unknown,260,2013-07-16 02:52:00
8:52 PM,73.9,48.0,40,29.78,-9999.0,SW,4.6,-,N/A,,Unknown,230,2013-07-16 03:52:00
9:52 PM,73.0,48.0,41,29.78,-9999.0,South,8.1,-,N/A,,Unknown,190,2013-07-16 04:52:00
10:52 PM,70.0,48.0,46,29.79,-9999.0,South,5.8,-,N/A,,Unknown,190,2013-07-16 05:52:00
11:52 PM,69.1,50.0,51,29.80,-9999.0,SSW,4.6,-,N/A,,Unknown,200,2013-07-16 06:52:00